Wetterdaten: Donnerstag, 26.02.2015
Datum Zeit Temp. A. Feuchte A. Luftdruck Regen Wind Richtung Richtung Sonnenschein ET UV Solar Taupunkt Windchill Windben Empfang
26.02.2015 00:00 1,6 C 76 % 1021,4 hPa 0,0 l/m 0,0 km/h (0 Bft) SO 145 0 min 0,000 mm 0,0 UV-I 0 W/m -2,2 C 1,6 C 0,0 km/h (0 Bft) 0,00 %
26.02.2015 00:15 1,6 C 76 % 1021,4 hPa 0,0 l/m 0,0 km/h (0 Bft) S-SW 195 0 min 0,000 mm 0,0 UV-I 0 W/m -2,2 C 1,6 C 0,0 km/h (0 Bft) 0,00 %
26.02.2015 00:30 1,6 C 76 % 1021,6 hPa 0,0 l/m 0,7 km/h (0 Bft) W-SW 254 0 min 0,000 mm 0,0 UV-I 0 W/m -2,2 C 1,6 C 4,0 km/h (1 Bft) 0,00 %
26.02.2015 00:45 1,6 C 75 % 1021,6 hPa 0,0 l/m 0,4 km/h (0 Bft) W-SW 251 0 min 0,000 mm 0,0 UV-I 0 W/m -2,3 C 1,6 C 4,0 km/h (1 Bft) 0,00 %
26.02.2015 01:00 1,5 C 76 % 1021,6 hPa 0,0 l/m 0,0 km/h (0 Bft) SW 216 0 min 0,000 mm 0,0 UV-I 0 W/m -2,3 C 1,5 C 0,0 km/h (0 Bft) 0,00 %
26.02.2015 01:15 1,4 C 77 % 1021,8 hPa 0,0 l/m 0,0 km/h (0 Bft) SW 216 0 min 0,000 mm 0,0 UV-I 0 W/m -2,2 C 1,4 C 0,0 km/h (0 Bft) 0,00 %
26.02.2015 01:30 1,3 C 77 % 1022,0 hPa 0,0 l/m 0,0 km/h (0 Bft) S-SW 209 0 min 0,000 mm 0,0 UV-I 0 W/m -2,3 C 1,3 C 0,0 km/h (0 Bft) 0,00 %
26.02.2015 01:45 1,1 C 78 % 1022,0 hPa 0,0 l/m 0,0 km/h (0 Bft) SW 216 0 min 0,000 mm 0,0 UV-I 0 W/m -2,3 C 1,1 C 0,0 km/h (0 Bft) 0,00 %
26.02.2015 02:00 0,7 C 80 % 1021,9 hPa 0,0 l/m 0,0 km/h (0 Bft) S-SW 199 0 min 0,000 mm 0,0 UV-I 0 W/m -2,3 C 0,7 C 0,0 km/h (0 Bft) 0,00 %
26.02.2015 02:15 0,4 C 81 % 1022,0 hPa 0,0 l/m 0,0 km/h (0 Bft) S-SW 196 0 min 0,000 mm 0,0 UV-I 0 W/m -2,5 C 0,4 C 0,0 km/h (0 Bft) 0,00 %
26.02.2015 02:30 0,3 C 81 % 1022,1 hPa 0,0 l/m 0,0 km/h (0 Bft) S-SW 198 0 min 0,000 mm 0,0 UV-I 0 W/m -2,6 C 0,3 C 0,0 km/h (0 Bft) 0,00 %
26.02.2015 02:45 0,2 C 82 % 1021,9 hPa 0,0 l/m 0,0 km/h (0 Bft) S-SW 208 0 min 0,000 mm 0,0 UV-I 0 W/m -2,5 C 0,2 C 0,0 km/h (0 Bft) 0,00 %
26.02.2015 03:00 -0,2 C 82 % 1022,3 hPa 0,0 l/m 0,0 km/h (0 Bft) S 187 0 min 0,000 mm 0,0 UV-I 0 W/m -2,9 C -0,2 C 0,0 km/h (0 Bft) 0,00 %
26.02.2015 03:15 -0,3 C 83 % 1022,3 hPa 0,0 l/m 0,0 km/h (0 Bft) S 186 0 min 0,000 mm 0,0 UV-I 0 W/m -2,8 C -0,3 C 0,0 km/h (0 Bft) 0,00 %
26.02.2015 03:30 -0,4 C 83 % 1022,4 hPa 0,0 l/m 0,0 km/h (0 Bft) S 185 0 min 0,000 mm 0,0 UV-I 0 W/m -2,9 C -0,4 C 0,0 km/h (0 Bft) 0,00 %
26.02.2015 03:45 -0,4 C 83 % 1022,5 hPa 0,0 l/m 0,0 km/h (0 Bft) S 189 0 min 0,000 mm 0,0 UV-I 0 W/m -2,9 C -0,4 C 0,0 km/h (0 Bft) 0,00 %
26.02.2015 04:00 -0,3 C 83 % 1022,3 hPa 0,0 l/m 0,0 km/h (0 Bft) S 182 0 min 0,000 mm 0,0 UV-I 0 W/m -2,8 C -0,3 C 0,0 km/h (0 Bft) 0,00 %
26.02.2015 04:15 -0,3 C 83 % 1022,1 hPa 0,0 l/m 0,0 km/h (0 Bft) S-SW 198 0 min 0,000 mm 0,0 UV-I 0 W/m -2,8 C -0,3 C 0,0 km/h (0 Bft) 0,00 %
26.02.2015 04:30 -0,3 C 83 % 1022,5 hPa 0,0 l/m 0,0 km/h (0 Bft) S 189 0 min 0,000 mm 0,0 UV-I 0 W/m -2,8 C -0,3 C 0,0 km/h (0 Bft) 0,00 %
26.02.2015 04:45 -0,3 C 83 % 1022,3 hPa 0,0 l/m 0,0 km/h (0 Bft) S-SW 199 0 min 0,000 mm 0,0 UV-I 0 W/m -2,8 C -0,3 C 0,0 km/h (0 Bft) 0,00 %
26.02.2015 05:00 -0,3 C 83 % 1022,6 hPa 0,0 l/m 0,0 km/h (0 Bft) S-SW 198 0 min 0,000 mm 0,0 UV-I 0 W/m -2,8 C -0,3 C 0,0 km/h (0 Bft) 0,00 %
26.02.2015 05:15 -0,3 C 83 % 1022,6 hPa 0,0 l/m 0,0 km/h (0 Bft) S 185 0 min 0,000 mm 0,0 UV-I 0 W/m -2,8 C -0,3 C 0,0 km/h (0 Bft) 0,00 %
26.02.2015 05:30 -0,3 C 83 % 1022,6 hPa 0,0 l/m 0,0 km/h (0 Bft) S-SW 196 0 min 0,000 mm 0,0 UV-I 0 W/m -2,8 C -0,3 C 0,0 km/h (0 Bft) 0,00 %
26.02.2015 05:45 -0,4 C 83 % 1022,6 hPa 0,0 l/m 0,0 km/h (0 Bft) S 191 0 min 0,000 mm 0,0 UV-I 0 W/m -2,9 C -0,4 C 0,0 km/h (0 Bft) 0,00 %
26.02.2015 06:00 -0,5 C 84 % 1022,7 hPa 0,0 l/m 0,0 km/h (0 Bft) S-SW 192 0 min 0,000 mm 0,0 UV-I 0 W/m -2,9 C -0,5 C 0,0 km/h (0 Bft) 0,00 %
26.02.2015 06:15 -0,5 C 83 % 1022,8 hPa 0,0 l/m 0,0 km/h (0 Bft) S 190 0 min 0,000 mm 0,0 UV-I 0 W/m -3,0 C -0,5 C 0,0 km/h (0 Bft) 0,00 %
26.02.2015 06:30 -0,5 C 84 % 1022,7 hPa 0,0 l/m 0,0 km/h (0 Bft) S-SW 195 0 min 0,000 mm 0,0 UV-I 0 W/m -2,9 C -0,5 C 0,0 km/h (0 Bft) 0,00 %
26.02.2015 06:45 -0,5 C 83 % 1022,8 hPa 0,0 l/m 0,0 km/h (0 Bft) S-SW 200 0 min 0,000 mm 0,0 UV-I 0 W/m -3,0 C -0,5 C 0,0 km/h (0 Bft) 0,00 %
26.02.2015 07:00 -0,5 C 83 % 1022,7 hPa 0,0 l/m 0,0 km/h (0 Bft) S-SW 192 0 min 0,000 mm 0,0 UV-I 2 W/m -3,0 C -0,5 C 0,0 km/h (0 Bft) 0,00 %
26.02.2015 07:15 -0,4 C 83 % 1022,9 hPa 0,0 l/m 0,0 km/h (0 Bft) S-SW 192 0 min 0,000 mm 0,0 UV-I 16 W/m -2,9 C -0,4 C 0,0 km/h (0 Bft) 0,00 %
26.02.2015 07:30 -0,3 C 83 % 1023,2 hPa 0,0 l/m 0,0 km/h (0 Bft) S-SW 192 0 min 0,000 mm 0,0 UV-I 37 W/m -2,8 C -0,3 C 0,0 km/h (0 Bft) 0,00 %
26.02.2015 07:45 -0,1 C 83 % 1022,8 hPa 0,0 l/m 0,0 km/h (0 Bft) S-SW 192 0 min 0,000 mm 0,0 UV-I 41 W/m -2,6 C -0,1 C 0,0 km/h (0 Bft) 0,00 %
26.02.2015 08:00 0,2 C 83 % 1023,0 hPa 0,0 l/m 0,0 km/h (0 Bft) S-SW 192 0 min 0,000 mm 1,0 UV-I 48 W/m -2,3 C 0,2 C 0,0 km/h (0 Bft) 0,00 %
26.02.2015 08:15 0,4 C 81 % 1022,7 hPa 0,0 l/m 0,0 km/h (0 Bft) S-SW 210 0 min 0,000 mm 1,0 UV-I 50 W/m -2,5 C 0,4 C 0,0 km/h (0 Bft) 0,00 %
26.02.2015 08:30 0,7 C 80 % 1023,0 hPa 0,0 l/m 0,0 km/h (0 Bft) S-SW 203 0 min 0,000 mm 1,0 UV-I 52 W/m -2,3 C 0,7 C 0,0 km/h (0 Bft) 0,00 %
26.02.2015 08:45 0,8 C 80 % 1022,9 hPa 0,0 l/m 0,0 km/h (0 Bft) S-SW 202 0 min 0,000 mm 1,0 UV-I 52 W/m -2,2 C 0,8 C 0,0 km/h (0 Bft) 0,00 %
26.02.2015 09:00 1,0 C 79 % 1022,9 hPa 0,0 l/m 0,0 km/h (0 Bft) SW 215 0 min 0,000 mm 1,0 UV-I 46 W/m -2,2 C 1,0 C 0,0 km/h (0 Bft) 0,00 %
26.02.2015 09:15 1,2 C 79 % 1022,6 hPa 0,0 l/m 0,0 km/h (0 Bft) S-SW 209 0 min 0,000 mm 1,0 UV-I 57 W/m -2,0 C 1,2 C 0,0 km/h (0 Bft) 0,00 %
26.02.2015 09:30 1,5 C 78 % 1022,6 hPa 0,0 l/m 0,0 km/h (0 Bft) S-SW 213 0 min 0,000 mm 1,0 UV-I 75 W/m -1,9 C 1,5 C 0,0 km/h (0 Bft) 0,00 %
26.02.2015 09:45 1,6 C 76 % 1022,4 hPa 0,0 l/m 0,0 km/h (0 Bft) S-SW 194 0 min 0,000 mm 1,0 UV-I 81 W/m -2,2 C 1,6 C 0,0 km/h (0 Bft) 0,00 %
26.02.2015 10:00 1,8 C 75 % 1022,0 hPa 0,0 l/m 0,4 km/h (0 Bft) W-SW 239 0 min 0,000 mm 1,0 UV-I 82 W/m -2,1 C 1,8 C 4,0 km/h (1 Bft) 0,00 %
26.02.2015 10:15 2,1 C 74 % 1021,7 hPa 0,0 l/m 0,0 km/h (0 Bft) S-SW 204 0 min 0,000 mm 1,0 UV-I 106 W/m -2,0 C 2,1 C 0,0 km/h (0 Bft) 0,00 %
26.02.2015 10:30 2,9 C 76 % 1021,2 hPa 0,0 l/m 0,0 km/h (0 Bft) S-SW 201 0 min 0,000 mm 1,0 UV-I 147 W/m -0,9 C 2,9 C 0,0 km/h (0 Bft) 0,00 %
26.02.2015 10:45 3,8 C 73 % 1020,9 hPa 0,0 l/m 0,0 km/h (0 Bft) S-SW 207 0 min 0,000 mm 2,0 UV-I 191 W/m -0,6 C 3,8 C 0,0 km/h (0 Bft) 0,00 %
26.02.2015 11:00 4,2 C 71 % 1021,0 hPa 0,0 l/m 0,0 km/h (0 Bft) SW 216 0 min 0,000 mm 2,0 UV-I 200 W/m -0,6 C 4,2 C 0,0 km/h (0 Bft) 0,00 %
26.02.2015 11:15 4,3 C 69 % 1020,7 hPa 0,0 l/m 0,0 km/h (0 Bft) SW 231 0 min 0,000 mm 2,0 UV-I 209 W/m -0,9 C 4,3 C 0,0 km/h (0 Bft) 0,00 %
26.02.2015 11:30 4,5 C 69 % 1020,4 hPa 0,0 l/m 0,0 km/h (0 Bft) S-SW 199 0 min 0,000 mm 2,0 UV-I 157 W/m -0,7 C 4,5 C 0,0 km/h (0 Bft) 0,00 %
26.02.2015 11:45 4,6 C 69 % 1020,2 hPa 0,0 l/m 0,0 km/h (0 Bft) W-NW 298 0 min 0,000 mm 2,0 UV-I 120 W/m -0,6 C 4,6 C 0,0 km/h (0 Bft) 0,00 %
26.02.2015 12:00 4,8 C 69 % 1019,9 hPa 0,0 l/m 0,0 km/h (0 Bft) SW 229 0 min 0,000 mm 2,0 UV-I 124 W/m -0,4 C 4,8 C 0,0 km/h (0 Bft) 0,00 %
26.02.2015 12:15 5,2 C 65 % 1019,6 hPa 0,0 l/m 0,0 km/h (0 Bft) SW 225 0 min 0,000 mm 2,0 UV-I 127 W/m -0,8 C 5,2 C 0,0 km/h (0 Bft) 0,00 %
26.02.2015 12:30 5,5 C 62 % 1019,4 hPa 0,0 l/m 0,0 km/h (0 Bft) SW 221 0 min 0,000 mm 2,0 UV-I 130 W/m -1,2 C 5,5 C 0,0 km/h (0 Bft) 0,00 %
26.02.2015 12:45 5,9 C 59 % 1019,0 hPa 0,0 l/m 0,0 km/h (0 Bft) SW 218 0 min 0,000 mm 2,0 UV-I 127 W/m -1,5 C 5,9 C 0,0 km/h (0 Bft) 0,00 %
26.02.2015 13:00 6,1 C 56 % 1018,6 hPa 0,0 l/m 0,0 km/h (0 Bft) SW 231 0 min 0,000 mm 2,0 UV-I 121 W/m -2,0 C 6,1 C 0,0 km/h (0 Bft) 0,00 %
26.02.2015 13:15 6,0 C 56 % 1018,6 hPa 0,0 l/m 0,0 km/h (0 Bft) SO 138 0 min 0,000 mm 2,0 UV-I 121 W/m -2,1 C 6,0 C 0,0 km/h (0 Bft) 0,00 %
26.02.2015 13:30 5,9 C 54 % 1018,3 hPa 0,0 l/m 0,0 km/h (0 Bft) S 175 0 min 0,000 mm 2,0 UV-I 124 W/m -2,7 C 5,9 C 0,0 km/h (0 Bft) 0,00 %
26.02.2015 13:45 6,0 C 55 % 1018,2 hPa 0,0 l/m 0,4 km/h (0 Bft) NW 307 0 min 0,000 mm 2,0 UV-I 136 W/m -2,3 C 6,0 C 4,0 km/h (1 Bft) 0,00 %
26.02.2015 14:00 6,2 C 51 % 1018,0 hPa 0,0 l/m 0,0 km/h (0 Bft) S 173 0 min 0,000 mm 2,0 UV-I 145 W/m -3,2 C 6,2 C 0,0 km/h (0 Bft) 0,00 %
26.02.2015 14:15 6,3 C 52 % 1017,7 hPa 0,0 l/m 0,0 km/h (0 Bft) O-NO 68 0 min 0,000 mm 2,0 UV-I 152 W/m -2,8 C 6,3 C 0,0 km/h (0 Bft) 0,00 %
26.02.2015 14:30 6,4 C 47 % 1017,7 hPa 0,0 l/m 0,4 km/h (0 Bft) S 175 0 min 0,000 mm 2,0 UV-I 153 W/m -4,1 C 6,4 C 4,0 km/h (1 Bft) 0,00 %
26.02.2015 14:45 6,2 C 47 % 1017,9 hPa 0,0 l/m 0,7 km/h (0 Bft) O-SO 103 0 min 0,000 mm 2,0 UV-I 138 W/m -4,3 C 6,2 C 4,0 km/h (1 Bft) 0,00 %
26.02.2015 15:00 6,2 C 44 % 1018,0 hPa 0,0 l/m 1,8 km/h (1 Bft) SO 139 0 min 0,000 mm 1,0 UV-I 128 W/m -5,1 C 6,2 C 4,0 km/h (1 Bft) 0,00 %
26.02.2015 15:15 5,8 C 48 % 1017,8 hPa 0,0 l/m 0,0 km/h (0 Bft) S 177 0 min 0,000 mm 1,0 UV-I 96 W/m -4,3 C 5,8 C 0,0 km/h (0 Bft) 0,00 %
26.02.2015 15:30 5,5 C 50 % 1017,8 hPa 0,0 l/m 0,0 km/h (0 Bft) S 172 0 min 0,000 mm 1,0 UV-I 86 W/m -4,1 C 5,5 C 0,0 km/h (0 Bft) 0,00 %
26.02.2015 15:45 5,5 C 50 % 1017,0 hPa 0,0 l/m 0,0 km/h (0 Bft) S 191 0 min 0,000 mm 1,0 UV-I 108 W/m -4,1 C 5,5 C 0,0 km/h (0 Bft) 0,00 %
26.02.2015 16:00 5,9 C 45 % 1016,7 hPa 0,0 l/m 0,0 km/h (0 Bft) W-SW 251 0 min 0,000 mm 1,0 UV-I 109 W/m -5,1 C 5,9 C 0,0 km/h (0 Bft) 0,00 %
26.02.2015 16:15 6,1 C 45 % 1016,7 hPa 0,0 l/m 0,0 km/h (0 Bft) S 173 15 min 0,000 mm 1,0 UV-I 257 W/m -4,9 C 6,1 C 0,0 km/h (0 Bft) 0,00 %
26.02.2015 16:30 6,6 C 47 % 1016,7 hPa 0,0 l/m 0,0 km/h (0 Bft) SW 215 15 min 0,000 mm 1,0 UV-I 213 W/m -3,9 C 6,6 C 0,0 km/h (0 Bft) 0,00 %
26.02.2015 16:45 6,3 C 46 % 1016,8 hPa 0,0 l/m 0,7 km/h (0 Bft) O-SO 121 15 min 0,000 mm 1,0 UV-I 154 W/m -4,5 C 6,3 C 4,0 km/h (1 Bft) 0,00 %
26.02.2015 17:00 5,8 C 49 % 1017,0 hPa 0,0 l/m 0,0 km/h (0 Bft) S 181 15 min 0,000 mm 0,0 UV-I 101 W/m -4,1 C 5,8 C 0,0 km/h (0 Bft) 0,00 %
26.02.2015 17:15 5,2 C 51 % 1017,4 hPa 0,0 l/m 0,0 km/h (0 Bft) S-SW 195 15 min 0,000 mm 0,0 UV-I 63 W/m -4,1 C 5,2 C 0,0 km/h (0 Bft) 0,00 %
26.02.2015 17:30 4,7 C 53 % 1017,7 hPa 0,0 l/m 0,0 km/h (0 Bft) S 176 15 min 0,000 mm 0,0 UV-I 16 W/m -4,0 C 4,7 C 0,0 km/h (0 Bft) 0,00 %
26.02.2015 17:45 3,8 C 60 % 1017,8 hPa 0,0 l/m 0,0 km/h (0 Bft) S 172 0 min 0,000 mm 0,0 UV-I 0 W/m -3,2 C 3,8 C 0,0 km/h (0 Bft) 0,00 %
26.02.2015 18:00 3,0 C 64 % 1017,7 hPa 0,0 l/m 0,0 km/h (0 Bft) S 178 0 min 0,000 mm 0,0 UV-I 0 W/m -3,1 C 3,0 C 0,0 km/h (0 Bft) 0,00 %
26.02.2015 18:15 2,5 C 65 % 1017,9 hPa 0,0 l/m 0,0 km/h (0 Bft) S 181 0 min 0,000 mm 0,0 UV-I 0 W/m -3,4 C 2,5 C 0,0 km/h (0 Bft) 0,00 %
26.02.2015 18:30 2,2 C 62 % 1017,9 hPa 0,0 l/m 0,0 km/h (0 Bft) S 185 0 min 0,000 mm 0,0 UV-I 0 W/m -4,3 C 2,2 C 0,0 km/h (0 Bft) 0,00 %
26.02.2015 18:45 2,0 C 63 % 1018,0 hPa 0,0 l/m 0,0 km/h (0 Bft) S 188 0 min 0,000 mm 0,0 UV-I 0 W/m -4,3 C 2,0 C 0,0 km/h (0 Bft) 0,00 %
26.02.2015 19:00 1,9 C 62 % 1017,9 hPa 0,0 l/m 0,0 km/h (0 Bft) W-SW 255 0 min 0,000 mm 0,0 UV-I 0 W/m -4,6 C 1,9 C 0,0 km/h (0 Bft) 0,00 %
26.02.2015 19:15 1,7 C 62 % 1017,8 hPa 0,0 l/m 0,0 km/h (0 Bft) SW 223 0 min 0,000 mm 0,0 UV-I 0 W/m -4,8 C 1,7 C 0,0 km/h (0 Bft) 0,00 %
26.02.2015 19:30 1,7 C 62 % 1017,4 hPa 0,0 l/m 0,0 km/h (0 Bft) S-SW 193 0 min 0,000 mm 0,0 UV-I 0 W/m -4,8 C 1,7 C 0,0 km/h (0 Bft) 0,00 %
26.02.2015 19:45 1,5 C 63 % 1017,2 hPa 0,0 l/m 0,0 km/h (0 Bft) SW 221 0 min 0,000 mm 0,0 UV-I 0 W/m -4,8 C 1,5 C 0,0 km/h (0 Bft) 0,00 %
26.02.2015 20:00 1,2 C 66 % 1017,3 hPa 0,0 l/m 0,0 km/h (0 Bft) SW 217 0 min 0,000 mm 0,0 UV-I 0 W/m -4,4 C 1,2 C 0,0 km/h (0 Bft) 0,00 %
26.02.2015 20:15 0,8 C 67 % 1017,3 hPa 0,0 l/m 0,0 km/h (0 Bft) S-SW 198 0 min 0,000 mm 0,0 UV-I 0 W/m -4,6 C 0,8 C 0,0 km/h (0 Bft) 0,00 %
26.02.2015 20:30 0,3 C 70 % 1017,1 hPa 0,0 l/m 0,0 km/h (0 Bft) S-SW 200 0 min 0,000 mm 0,0 UV-I 0 W/m -4,5 C 0,3 C 0,0 km/h (0 Bft) 0,00 %
26.02.2015 20:45 -0,1 C 72 % 1017,0 hPa 0,0 l/m 0,0 km/h (0 Bft) S 191 0 min 0,000 mm 0,0 UV-I 0 W/m -4,5 C -0,1 C 0,0 km/h (0 Bft) 0,00 %
26.02.2015 21:00 -0,1 C 72 % 1017,1 hPa 0,0 l/m 0,0 km/h (0 Bft) SW 218 0 min 0,000 mm 0,0 UV-I 0 W/m -4,5 C -0,1 C 0,0 km/h (0 Bft) 0,00 %
26.02.2015 21:15 -0,6 C 74 % 1017,1 hPa 0,0 l/m 0,0 km/h (0 Bft) S-SW 211 0 min 0,000 mm 0,0 UV-I 0 W/m -4,6 C -0,6 C 0,0 km/h (0 Bft) 0,00 %
26.02.2015 21:30 -0,5 C 74 % 1017,0 hPa 0,0 l/m 0,0 km/h (0 Bft) SW 220 0 min 0,000 mm 0,0 UV-I 0 W/m -4,5 C -0,5 C 0,0 km/h (0 Bft) 0,00 %
26.02.2015 21:45 -0,7 C 75 % 1016,9 hPa 0,0 l/m 0,0 km/h (0 Bft) S-SW 193 0 min 0,000 mm 0,0 UV-I 0 W/m -4,6 C -0,7 C 0,0 km/h (0 Bft) 0,00 %
26.02.2015 22:00 -1,0 C 77 % 1016,6 hPa 0,0 l/m 0,0 km/h (0 Bft) SW 217 0 min 0,000 mm 0,0 UV-I 0 W/m -4,5 C -1,0 C 0,0 km/h (0 Bft) 0,00 %
26.02.2015 22:15 -0,9 C 77 % 1016,7 hPa 0,0 l/m 0,0 km/h (0 Bft) S-SW 204 0 min 0,000 mm 0,0 UV-I 0 W/m -4,4 C -0,9 C 0,0 km/h (0 Bft) 0,00 %
26.02.2015 22:30 -1,1 C 78 % 1016,3 hPa 0,0 l/m 0,0 km/h (0 Bft) S-SW 198 0 min 0,000 mm 0,0 UV-I 0 W/m -4,4 C -1,1 C 0,0 km/h (0 Bft) 0,00 %
26.02.2015 22:45 -0,5 C 76 % 1016,2 hPa 0,0 l/m 0,0 km/h (0 Bft) SW 215 0 min 0,000 mm 0,0 UV-I 0 W/m -4,2 C -0,5 C 0,0 km/h (0 Bft) 0,00 %
26.02.2015 23:00 -1,2 C 78 % 1016,0 hPa 0,0 l/m 0,0 km/h (0 Bft) SW 217 0 min 0,000 mm 0,0 UV-I 0 W/m -4,5 C -1,2 C 0,0 km/h (0 Bft) 0,00 %
26.02.2015 23:15 -1,4 C 81 % 1015,6 hPa 0,0 l/m 0,0 km/h (0 Bft) SW 224 0 min 0,000 mm 0,0 UV-I 0 W/m -4,2 C -1,4 C 0,0 km/h (0 Bft) 0,00 %
26.02.2015 23:30 -1,4 C 81 % 1015,4 hPa 0,0 l/m 0,0 km/h (0 Bft) S-SW 197 0 min 0,000 mm 0,0 UV-I 0 W/m -4,2 C -1,4 C 0,0 km/h (0 Bft) 0,00 %
26.02.2015 23:45 -1,4 C 80 % 1015,2 hPa 0,0 l/m 0,0 km/h (0 Bft) S 185 0 min 0,000 mm 0,0 UV-I 0 W/m -4,4 C -1,4 C 0,0 km/h (0 Bft) 0,00 %
_ Min-Zeit 23:15 15:00 23:45 - 00:00 - - - - - - 15:00 23:15 00:00 00:00
Minimum _ -1,4 C 44 % 1015,2 hPa - 0,0 km/h (0 Bft) - - - - - - -5,1 C -1,4 C 0,0 km/h (0 Bft) 0,00 %
_ Max-Zeit 16:30 06:00 07:30 00:00 15:00 - - 16:15 00:00 10:45 16:15 12:00 16:30 00:30 00:00
Maximum _ 6,6 C 84 % 1023,2 hPa 0,0 l/m 1,8 km/h
SO (1 Bft)
- - 15 min 0,000 mm 2,0 UV-I 257 W/m -0,4 C 6,6 C 4,0 km/h
W-SW (1 Bft)
0,00 %
Durchschnitt _ 2,0 C 70 % 1019,8 hPa #0,0 l/m 0,1 km/h (0 Bft) SO - #1:30 h #0,000 mm 1,5 UV-I 109 W/m -3,1 C 2,0 C 0,3 km/h (0 Bft) 0,00 %